Regional Weather Roundup
Issued by NWS

Home | Current Version | Previous Version | Graphics & Text | Print | Product List | Glossary On
Versions: 1 2 3 4 5 6 7 8 9 10 11 12 13 14 15 16 17 18 19 20 21 22 23 24 25 26 27 28 29 30 31 32 33 34 35 36 37 38 39 40 41 42 43 44 45 46 47 48 49 50
000
ASUS43 KOAX 222310
RWRNE

WEATHER ROUNDUP FOR NEBRASKA
NATIONAL WEATHER SERVICE OMAHA NE
600 PM CDT FRI MAY 22 2015

NOTES: SATELLITE DATA IS BEING USED TO AUGMENT CLOUD COVER ABOVE
       12000 FEET.
       "FAIR" INDICATES FEW OR NO CLOUDS BELOW 12,000 FEET WITH NO
       SIGNIFICANT WEATHER AND/OR OBSTRUCTIONS TO VISIBILITY.

  * THESE STATIONS DO NOT REPORT WEATHER SUCH AS RAIN...SNOW OR FOG.

NEZ001>004-019>022-054>056-230000-
NEBRASKA PANHANDLE

CITY           SKY/WX    TMP DP  RH WIND       PRES   REMARKS
SCOTTSBLUFF    LGT RAIN  49  47  93 SE17      30.04F FOG
ALLIANCE       CLOUDY    48  44  86 SE16      30.05F
CHADRON        CLOUDY    52  44  74 SE13      30.07S
KIMBALL          N/A    N/A N/A N/A MISG        N/A
SIDNEY         LGT RAIN  48  46  93 SE14      30.04S FOG
$$

NEZ057>060-069>072-079>082-230000-
SOUTHWEST NEBRASKA

CITY           SKY/WX    TMP DP  RH WIND       PRES   REMARKS
NORTH PLATTE   LGT RAIN  47  45  93 E15       30.12S
IMPERIAL       CLOUDY    49  46  90 E17G25    30.05F
LEXINGTON      LGT RAIN  51  48  92 E14       30.13S
MCCOOK         CLOUDY    51  49  92 E15       30.07F
OGALLALA       CLOUDY    47  45  93 E18G24    30.08S
$$

NEZ005>010-023>029-035>040-094-230000-
NORTH CENTRAL NEBRASKA

CITY           SKY/WX    TMP DP  RH WIND       PRES   REMARKS
VALENTINE      LGT RAIN  51  44  77 SE18G28   30.15F
AINSWORTH      LGT RAIN  50  46  85 SE15      30.16F
BROKEN BOW     LGT RAIN  50  45  83 E12G22    30.14F
O`NEILL        LGT RAIN  51  48  87 SE7       30.20F
ORD            LGT RAIN  52  45  77 E8        30.16F
THEDFORD       DRIZZLE   49  43  78 SE18      30.14S
$$

NEZ041-046>049-061>064-073>077-083>087-230000-
SOUTH CENTRAL NEBRASKA

CITY           SKY/WX    TMP DP  RH WIND       PRES   REMARKS
GRAND ISLAND   LGT RAIN  54  46  74 SE9G20    30.18S
AURORA         CLOUDY    57  47  68 SE9       30.17F
HASTINGS       LGT RAIN  55  46  71 SE9G18    30.16F
HEBRON         CLOUDY    61  46  57 SE12      30.16F
HOLDREGE       LGT RAIN  50  48  93 E16       30.13S
KEARNEY *      CLOUDY    52  46  82 E15       30.16S
YORK           CLOUDY    59  46  63 SE12      30.18S
$$

NEZ011>018-030>034-042>045-230000-
NORTHEAST NEBRASKA

CITY           SKY/WX    TMP DP  RH WIND       PRES   REMARKS
NORFOLK        LGT RAIN  55  50  83 NE8       30.20F
ALBION         CLOUDY    55  45  70 E10       30.18F
BLAIR          CLOUDY    63  45  53 E13       30.19F
COLUMBUS *     CLOUDY    59  46  63 E8        30.21F
FREMONT        PTSUNNY   65  44  47 E9        30.19F
TEKAMAH        CLOUDY    60  51  72 SE6       30.21F
WAYNE          LGT RAIN  55  46  71 S17       30.24R
$$

NEZ050>053-065>068-078-088>093-230000-
SOUTHEAST NEBRASKA

CITY           SKY/WX    TMP DP  RH WIND       PRES   REMARKS
LINCOLN        CLOUDY    63  45  51 S10       30.20F
OMAHA EPPLEY   PTSUNNY   65  47  52 E9        30.20F
BEATRICE       CLOUDY    62  43  49 SE9       30.18F
FALLS CITY     CLOUDY    65  46  50 SE8       30.20F
NEBRASKA CITY  CLOUDY    64  42  45 SE8       30.20F
PLATTSMOUTH    CLOUDY    66  41  40 SE9       30.20S
$$

NEZ044-045-051>053-067-230000-
OMAHA AREA

CITY           SKY/WX    TMP DP  RH WIND       PRES   REMARKS
OMAHA EPPLEY   PTSUNNY   65  47  52 E9        30.20F
BLAIR          CLOUDY    63  45  53 E13       30.19F
FREMONT        PTSUNNY   65  44  47 E9        30.19F
MILLARD        PTSUNNY   67  45  44 E9        30.18F
OFFUTT AFB     PTSUNNY   66  48  52 E7        30.19F
PLATTSMOUTH    CLOUDY    66  41  40 SE9       30.20S
WAHOO          CLOUDY    65  46  48 MISG      30.19S
$$


USA.gov is the U.S. government's official web portal to all federal, state and local government web resources and services.